sat.trackr.live / text

‹ back to catalog

LYRA-3

NORAD 64577 · 2025-135BB

PAYLOAD ACTIVE UNKNOWN

§ Identity

Operator
Country
AUS
Launch date
2025-06-23
Launch site
AFWTR
Launch vehicle
Mass (kg)
RCS (m²)

External: N2YO · Heavens-Above · Gunter

§ Orbital elements

Epoch: 2026-09-21T20:33:33.542208Z

Period
97.65 min
Inclination
97.7767°
Eccentricity
0.0021346
Mean motion
14.74706609 rev/d
Perigee alt
631.1 km
Apogee alt
661.1 km
Semi-major
7,024.2 km
B*
1.3102e-4
RAAN
6.0005°
Arg perigee
33.9334°
Mean anomaly
326.3236°
Rev number
6,751

§ Raw data

LYRA-31 64577U 25135BB  26264.85663822  .00000829  00000+0  13102-3 0  99932 64577  97.7767   6.0005 0021346  33.9334 326.3236 14.74706609 67514

JSON: /api/v1/satellites/64577 · /tle

For live sub-satellite position, see the globe view (requires WebGL).

§ Visibility from observer

Set your observer location to see the next 7 days of passes ≥ 10°. The values pass through the URL so the page stays shareable.

No JS? Fill the form by hand. The geolocation button needs JavaScript.

§ Radio — SatNOGS DB

ModeDescriptionDownlinkUplink
FM Telemetry 400.500 MHz

1 transmitter · refreshed weekly from db.satnogs.org